Back to catalog

STARLINK-35239

AliveCommunicationsVLEO
NORAD 65623·PAYLOAD·🇺🇸 United States

Launched Sep 18, 2025 from Cape Canaveral Space Force Station

Loading…

Next Passes (next 24 hours)

TLE

FreshSource: CelesTrak SupGP

Epoch: Sep 14, 2026, 15:18 UTC

1 65623C 25210B   26257.63798611  .00057953  00000+0  17116-2 0  2578
2 65623  53.1568 144.9244 0001212 105.2765 252.2755 15.34372900    15

Track STARLINK-35239 in real time with AllMySat

Download on the App Store